Погода в Павловке

Россия / Республика Крым     45°10′48″N   34°42′33″E
темп.,
°C
ветер,
м/с
пор.,
м/с
влажн.,
%
обл.,
%
осадки,
мм/ч
давл.,
гПа
погр.,
м
6 мая, чт
чт600:00+10юв355097 0.0 101483
03:00+8ююв225915 0.0 101316
06:00+9ююв2262100 0.0 101212
09:00+16юв0140100 0.0 1012361
12:00+20ссз323199 0.0 10121208
15:00+21сз343185 0.0 10121913
18:00+18ссв45514 0.0 1012522
21:00+12з11735 0.0 101510
7 мая, пт
пт700:00+10з2376100 0.0 101629
03:00+10зюз227015 0.0 101622
06:00+10зюз126814 0.0 101712
09:00+17вюв225147 0.0 1017473
12:00+22в234264 0.0 10161712
15:00+23ю133988 0.0 10141894
18:00+21зюз235031 0.0 1014790
21:00+14ю3358100 0.0 101530
8 мая, сб
сб800:00+13ю3459100 0.0 101454
03:00+12ю3365100 0.0 101328
06:00+13ююв2262100 0.0 101218
09:00+19ююв2345100 0.0 1012337
12:00+25ю23315 0.0 10101296
15:00+26зюз143296 0.0 10092271
18:00+19сз4860100 0.0 1011628
21:00+11ссз71180100 0.0 1014658
9 мая, вс
вс900:00+9сз71079100 0.1 10171033
03:00+8ссз51188100 1.6 10191082
06:00+7зсз6129256 0.1 1020513
09:00+11сз68655 0.1 10231017
12:00+14сз68415 0.0 10242084
15:00+15сз783622 0.0 10242527
18:00+15сз574283 0.0 10252416
21:00+9зсз496624 0.0 1027183
10 мая, пн
пн1000:00+7зюз45755 0.0 102890
03:00+6з33805 0.0 102840
06:00+6зюз23805 0.0 102840
09:00+12ссз33520 0.0 1028790
12:00+16с34395 0.0 10261922
15:00+17ссв44354 0.0 10241955
18:00+16ссв24375 0.0 10231912
21:00+10зсз33574 0.0 102337